| time (UTC) | temp F | wind direction | speed knots | gust knots | rain 1hr in | rain 24hr in | rain mn in | humidity % | barometer mb |
| 20260508100526 | 37 | 0 | 0.0 | 1.7 | 0.00 | 0.00 | 0.00 | 83 | 1007.9 |
| 20260508100056 | 37 | 236 | 0.0 | 2.6 | 0.00 | 0.00 | 0.00 | 83 | 1008.0 |
| 20260508095530 | 37 | 0 | 0.9 | 2.6 | 0.00 | 0.00 | 0.00 | 83 | 1007.8 |
| 20260508095030 | 37 | 236 | 0.9 | 2.6 | 0.00 | 0.00 | 0.00 | 83 | 1007.7 |
| 20260508094540 | 36 | 236 | 0.9 | 2.6 | 0.00 | 0.00 | 0.00 | 83 | 1007.7 |
| 20260508094108 | 36 | 236 | 0.0 | 0.9 | 0.00 | 0.00 | 0.00 | 83 | 1007.7 |
| 20260508093530 | 36 | 0 | 0.0 | 1.7 | 0.00 | 0.00 | 0.00 | 83 | 1007.7 |
| 20260508093041 | 36 | 0 | 0.0 | 1.7 | 0.00 | 0.00 | 0.00 | 83 | 1007.7 |
| 20260508092526 | 36 | 0 | 0.0 | 1.7 | 0.00 | 0.00 | 0.00 | 83 | 1007.5 |
| 20260508092027 | 36 | 236 | 0.9 | 1.7 | 0.00 | 0.00 | 0.00 | 83 | 1007.6 |
| 20260508091559 | 36 | 236 | 0.9 | 2.6 | 0.00 | 0.00 | 0.00 | 83 | 1007.5 |
| 20260508091031 | 36 | 236 | 0.9 | 2.6 | 0.00 | 0.00 | 0.00 | 83 | 1007.4 |
| 20260508090529 | 36 | 236 | 0.9 | 2.6 | 0.00 | 0.00 | 0.00 | 83 | 1007.4 |
| 20260508090114 | 36 | 236 | 0.9 | 1.7 | 0.00 | 0.00 | 0.00 | 83 | 1007.3 |
| 20260508085526 | 36 | 236 | 0.9 | 1.7 | 0.00 | 0.00 | 0.00 | 83 | 1007.2 |
| 20260508085026 | 36 | 236 | 0.9 | 1.7 | 0.00 | 0.00 | 0.00 | 83 | 1007.1 |
| 20260508084535 | 36 | 0 | 0.0 | 0.9 | 0.00 | 0.00 | 0.00 | 83 | 1007.0 |
| 20260508084026 | 36 | 0 | 0.0 | 1.7 | 0.00 | 0.00 | 0.00 | 84 | 1007.1 |
| 20260508083527 | 36 | 0 | 0.0 | 1.7 | 0.00 | 0.00 | 0.00 | 84 | 1007.2 |
| 20260508083036 | 36 | 0 | 0.0 | 1.7 | 0.00 | 0.00 | 0.00 | 84 | 1007.1 |
| 20260508082526 | 36 | 0 | 0.0 | 2.6 | 0.00 | 0.00 | 0.00 | 83 | 1007.2 |
| 20260508082026 | 36 | 0 | 0.9 | 2.6 | 0.00 | 0.00 | 0.00 | 83 | 1007.2 |
| 20260508081559 | 36 | 236 | 0.9 | 1.7 | 0.00 | 0.00 | 0.00 | 82 | 1007.2 |
| 20260508081031 | 36 | 236 | 0.0 | 1.7 | 0.00 | 0.00 | 0.00 | 82 | 1007.2 |
| 20260508080530 | 36 | 0 | 0.0 | 0.0 | 0.00 | 0.00 | 0.00 | 83 | 1007.2 |
| 20260508080041 | 36 | 0 | 0.0 | 0.9 | 0.00 | 0.00 | 0.00 | 83 | 1007.0 |
| 20260508075527 | 36 | 0 | 0.0 | 2.6 | 0.00 | 0.01 | 0.00 | 84 | 1006.9 |
| 20260508075029 | 36 | 0 | 0.0 | 2.6 | 0.00 | 0.01 | 0.00 | 84 | 1006.9 |
| 20260508074537 | 36 | 236 | 0.9 | 2.6 | 0.00 | 0.01 | 0.00 | 84 | 1006.9 |
| 20260508074029 | 35 | 236 | 0.9 | 2.6 | 0.00 | 0.01 | 0.00 | 84 | 1006.9 |
| 20260508073527 | 35 | 236 | 0.9 | 2.6 | 0.00 | 0.01 | 0.00 | 83 | 1006.9 |
| 20260508073049 | 36 | 236 | 0.9 | 2.6 | 0.00 | 0.01 | 0.00 | 83 | 1006.9 |
| 20260508072526 | 36 | 236 | 0.9 | 1.7 | 0.00 | 0.01 | 0.00 | 83 | 1007.0 |
| 20260508072027 | 36 | 236 | 0.0 | 1.7 | 0.00 | 0.01 | 0.00 | 83 | 1006.9 |
| 20260508071539 | 36 | 236 | 0.0 | 2.6 | 0.00 | 0.01 | 0.00 | 83 | 1006.9 |
| 20260508071026 | 36 | 236 | 0.9 | 2.6 | 0.00 | 0.01 | 0.00 | 83 | 1007.0 |
| 20260508070528 | 36 | 236 | 1.7 | 2.6 | 0.00 | 0.01 | 0.00 | 83 | 1007.0 |
| 20260508070045 | 36 | 236 | 0.9 | 2.6 | 0.00 | 0.01 | 0.00 | 83 | 1006.9 |
| 20260508065526 | 36 | 236 | 0.9 | 1.7 | 0.00 | 0.04 | 0.00 | 82 | 1007.0 |
| 20260508065030 | 36 | 0 | 0.0 | 0.0 | 0.00 | 0.04 | 0.00 | 82 | 1007.1 |
| 20260508064542 | 36 | 0 | 0.0 | 0.9 | 0.00 | 0.04 | 0.00 | 82 | 1007.1 |
| 20260508064029 | 36 | 0 | 0.0 | 1.7 | 0.00 | 0.04 | 0.00 | 82 | 1007.1 |
| 20260508063529 | 36 | 0 | 0.0 | 1.7 | 0.00 | 0.04 | 0.00 | 83 | 1007.1 |
| 20260508063040 | 36 | 236 | 0.9 | 1.7 | 0.00 | 0.04 | 0.00 | 82 | 1007.1 |
| 20260508062528 | 37 | 236 | 0.9 | 2.6 | 0.00 | 0.04 | 0.00 | 82 | 1007.2 |
| 20260508062026 | 37 | 236 | 0.9 | 2.6 | 0.00 | 0.04 | 0.00 | 81 | 1007.2 |
| 20260508061541 | 37 | 236 | 0.9 | 2.6 | 0.00 | 0.04 | 0.00 | 81 | 1007.3 |
| 20260508061027 | 37 | 0 | 0.0 | 2.6 | 0.00 | 0.04 | 0.00 | 81 | 1007.2 |
| 20260508060527 | 37 | 0 | 0.9 | 2.6 | 0.00 | 0.04 | 0.00 | 80 | 1007.4 |
| 20260508060054 | 37 | 236 | 1.7 | 2.6 | 0.00 | 0.04 | 0.00 | 80 | 1007.4 |
| 20260508055527 | 38 | 236 | 1.7 | 2.6 | 0.00 | 0.19 | 0.00 | 80 | 1007.5 |
| 20260508055026 | 38 | 236 | 0.9 | 2.6 | 0.00 | 0.19 | 0.00 | 80 | 1007.5 |
| 20260508054610 | 38 | 0 | 0.0 | 1.7 | 0.00 | 0.19 | 0.00 | 79 | 1007.5 |
| 20260508054027 | 38 | 236 | 0.9 | 2.6 | 0.00 | 0.19 | 0.00 | 79 | 1007.6 |
| 20260508053526 | 38 | 236 | 0.0 | 2.6 | 0.00 | 0.19 | 0.00 | 78 | 1007.4 |
| 20260508053050 | 38 | 236 | 0.9 | 2.6 | 0.00 | 0.19 | 0.00 | 78 | 1007.3 |
| 20260508052527 | 39 | 236 | 0.9 | 1.7 | 0.00 | 0.19 | 0.00 | 78 | 1007.4 |
| 20260508052028 | 39 | 0 | 0.0 | 0.0 | 0.00 | 0.19 | 0.00 | 78 | 1007.5 |
| 20260508051541 | 39 | 0 | 0.0 | 2.6 | 0.00 | 0.19 | 0.00 | 77 | 1007.6 |
| 20260508051054 | 39 | 0 | 0.0 | 2.6 | 0.00 | 0.19 | 0.00 | 77 | 1007.5 |
| 20260508050527 | 39 | 236 | 0.9 | 2.6 | 0.00 | 0.19 | 0.00 | 77 | 1007.5 |
| 20260508050039 | 40 | 236 | 1.7 | 2.6 | 0.00 | 0.19 | 0.00 | 76 | 1007.5 |
| 20260508045526 | 40 | 236 | 1.7 | 2.6 | 0.00 | 0.19 | 0.00 | 76 | 1007.7 |
| 20260508045026 | 40 | 236 | 0.0 | 2.6 | 0.00 | 0.19 | 0.00 | 75 | 1007.7 |
| 20260508044537 | 40 | 0 | 0.0 | 0.0 | 0.00 | 0.19 | 0.00 | 75 | 1007.7 |
| 20260508044026 | 40 | 0 | 0.0 | 0.9 | 0.00 | 0.19 | 0.00 | 75 | 1007.7 |
| 20260508043527 | 40 | 0 | 0.0 | 1.7 | 0.00 | 0.19 | 0.00 | 75 | 1007.7 |
| 20260508043037 | 41 | 0 | 0.0 | 1.7 | 0.00 | 0.19 | 0.00 | 75 | 1007.7 |
| 20260508042526 | 41 | 236 | 0.0 | 1.7 | 0.00 | 0.19 | 0.00 | 74 | 1007.7 |
| 20260508042026 | 41 | 0 | 0.0 | 1.7 | 0.00 | 0.19 | 0.00 | 73 | 1007.6 |
| 20260508041545 | 42 | 0 | 0.0 | 0.9 | 0.00 | 0.19 | 0.00 | 72 | 1007.9 |
| 20260508041028 | 42 | 0 | 0.0 | 0.9 | 0.00 | 0.19 | 0.00 | 70 | 1007.7 |
| 20260508040603 | 43 | 0 | 0.0 | 1.7 | 0.00 | 0.19 | 0.00 | 71 | 1007.7 |
| 20260508040043 | 43 | 0 | 0.0 | 1.7 | 0.00 | 0.19 | 0.00 | 70 | 1007.8 |
| 20260508035527 | 43 | 0 | 0.0 | 1.7 | 0.00 | 0.20 | 0.19 | 70 | 1007.8 |
| 20260508035027 | 43 | 0 | 0.0 | 1.7 | 0.00 | 0.20 | 0.19 | 70 | 1007.9 |
| 20260508034547 | 43 | 0 | 0.0 | 1.7 | 0.00 | 0.20 | 0.19 | 69 | 1007.8 |
| 20260508034029 | 43 | 236 | 0.0 | 2.6 | 0.00 | 0.20 | 0.19 | 69 | 1007.9 |
| 20260508033527 | 43 | 0 | 0.0 | 2.6 | 0.00 | 0.20 | 0.19 | 70 | 1008.0 |
| 20260508033037 | 42 | 0 | 0.0 | 2.6 | 0.00 | 0.20 | 0.19 | 72 | 1008.0 |
| 20260508032527 | 42 | 236 | 0.0 | 2.6 | 0.00 | 0.20 | 0.19 | 73 | 1007.9 |
| 20260508032027 | 42 | 0 | 0.9 | 1.7 | 0.00 | 0.20 | 0.19 | 73 | 1007.8 |
| 20260508031536 | 42 | 236 | 0.0 | 1.7 | 0.00 | 0.20 | 0.19 | 73 | 1007.8 |
| 20260508031027 | 42 | 236 | 0.0 | 2.6 | 0.00 | 0.20 | 0.19 | 73 | 1007.7 |
| 20260508030529 | 43 | 236 | 0.0 | 2.6 | 0.00 | 0.20 | 0.19 | 72 | 1007.8 |
| 20260508030046 | 43 | 0 | 0.0 | 2.6 | 0.00 | 0.20 | 0.19 | 71 | 1007.7 |
| 20260508025529 | 43 | 236 | 0.0 | 2.6 | 0.00 | 0.32 | 0.19 | 69 | 1007.7 |
| 20260508025027 | 44 | 236 | 0.9 | 2.6 | 0.00 | 0.32 | 0.19 | 70 | 1007.6 |
| 20260508024544 | 44 | 236 | 0.9 | 2.6 | 0.00 | 0.32 | 0.19 | 70 | 1007.5 |
| 20260508024029 | 44 | 0 | 0.9 | 2.6 | 0.00 | 0.32 | 0.19 | 69 | 1007.5 |
| 20260508023530 | 45 | 236 | 0.9 | 2.6 | 0.00 | 0.32 | 0.19 | 68 | 1007.5 |
| 20260508023039 | 45 | 236 | 0.9 | 2.6 | 0.00 | 0.32 | 0.19 | 67 | 1007.5 |
| 20260508022602 | 46 | 236 | 0.9 | 1.7 | 0.00 | 0.32 | 0.19 | 65 | 1007.6 |
| 20260508022531 | 46 | 236 | 0.9 | 1.7 | 0.00 | 0.32 | 0.19 | 65 | 1007.6 |
| 20260508022027 | 47 | 236 | 0.0 | 1.7 | 0.00 | 0.32 | 0.19 | 61 | 1007.6 |
| 20260508021537 | 48 | 0 | 0.0 | 1.7 | 0.00 | 0.32 | 0.19 | 59 | 1007.6 |
| 20260508021031 | 48 | 0 | 0.0 | 1.7 | 0.00 | 0.32 | 0.19 | 56 | 1007.6 |
| 20260508020526 | 49 | 0 | 0.0 | 1.7 | 0.00 | 0.32 | 0.19 | 55 | 1007.7 |
| 20260508020035 | 49 | 0 | 0.0 | 4.3 | 0.00 | 0.32 | 0.19 | 55 | 1007.7 |
| 20260508015528 | 49 | 0 | 0.0 | 7.8 | 0.00 | 0.46 | 0.19 | 55 | 1007.8 |
| 20260508015026 | 49 | 0 | 0.9 | 7.8 | 0.00 | 0.46 | 0.19 | 54 | 1007.8 |
| 20260508014539 | 50 | 13 | 0.9 | 6.1 | 0.00 | 0.46 | 0.19 | 55 | 1007.8 |
| 20260508014026 | 50 | 5 | 0.9 | 7.8 | 0.00 | 0.46 | 0.19 | 54 | 1007.8 |
| 20260508013527 | 50 | 305 | 1.7 | 7.8 | 0.00 | 0.46 | 0.19 | 54 | 1007.8 |
| 20260508013042 | 50 | 62 | 0.9 | 8.7 | 0.00 | 0.46 | 0.19 | 54 | 1007.7 |
| 20260508012527 | 50 | 230 | 1.7 | 8.7 | 0.00 | 0.46 | 0.19 | 55 | 1007.7 |
| 20260508012030 | 50 | 0 | 0.9 | 12.2 | 0.00 | 0.46 | 0.19 | 55 | 1007.7 |
| 20260508011535 | 51 | 11 | 0.9 | 12.2 | 0.00 | 0.46 | 0.19 | 54 | 1007.6 |
| 20260508011058 | 51 | 301 | 1.7 | 9.6 | 0.00 | 0.46 | 0.19 | 55 | 1007.5 |
| 20260508011028 | 51 | 301 | 1.7 | 9.6 | 0.00 | 0.46 | 0.19 | 55 | 1007.5 |
| 20260508010526 | 51 | 19 | 3.5 | 9.6 | 0.00 | 0.46 | 0.19 | 56 | 1007.4 |
| 20260508010047 | 51 | 330 | 0.9 | 7.0 | 0.00 | 0.46 | 0.19 | 58 | 1007.3 |
| 20260508005601 | 51 | 0 | 0.9 | 7.8 | 0.00 | 0.58 | 0.19 | 58 | 1007.4 |
| 20260508005526 | 51 | 0 | 0.9 | 7.8 | 0.00 | 0.58 | 0.19 | 58 | 1007.4 |
| 20260508005027 | 51 | 0 | 0.9 | 9.6 | 0.00 | 0.58 | 0.19 | 59 | 1007.3 |
| 20260508004538 | 51 | 282 | 1.7 | 9.6 | 0.00 | 0.58 | 0.19 | 61 | 1007.3 |
| 20260508004027 | 51 | 9 | 0.9 | 6.1 | 0.00 | 0.58 | 0.19 | 65 | 1007.2 |
| 20260508003530 | 50 | 360 | 0.9 | 5.2 | 0.00 | 0.58 | 0.19 | 69 | 1007.1 |
| 20260508003040 | 50 | 0 | 0.0 | 4.3 | 0.00 | 0.58 | 0.19 | 74 | 1006.9 |
| 20260508002528 | 49 | 215 | 0.9 | 4.3 | 0.00 | 0.58 | 0.19 | 75 | 1006.9 |
| 20260508002027 | 49 | 98 | 0.9 | 4.3 | 0.00 | 0.58 | 0.19 | 79 | 1006.8 |
| 20260508001535 | 48 | 0 | 0.0 | 1.7 | 0.00 | 0.58 | 0.19 | 81 | 1006.8 |
| 20260508001026 | 49 | 0 | 0.0 | 2.6 | 0.00 | 0.58 | 0.19 | 81 | 1006.7 |
| 20260508000529 | 49 | 0 | 0.0 | 2.6 | 0.00 | 0.58 | 0.19 | 81 | 1006.5 |
| 20260508000036 | 49 | 0 | 0.0 | 2.6 | 0.00 | 0.58 | 0.19 | 81 | 1006.5 |
| 20260507235526 | 49 | 0 | 0.0 | 0.9 | 0.00 | 0.69 | 0.19 | 80 | 1006.4 |
| 20260507235026 | 49 | 0 | 0.0 | 0.9 | 0.00 | 0.69 | 0.19 | 80 | 1006.3 |
| 20260507234544 | 49 | 0 | 0.0 | 0.0 | 0.00 | 0.69 | 0.19 | 79 | 1006.2 |
| 20260507234026 | 50 | 0 | 0.0 | 0.0 | 0.00 | 0.69 | 0.19 | 79 | 1006.0 |
| 20260507233527 | 50 | 0 | 0.0 | 0.0 | 0.00 | 0.69 | 0.19 | 79 | 1006.0 |
| 20260507233129 | 50 | 0 | 0.0 | 0.0 | 0.00 | 0.69 | 0.19 | 79 | 1005.9 |
| 20260507233043 | 50 | 0 | 0.0 | 0.0 | 0.00 | 0.69 | 0.19 | 79 | 1005.9 |
| 20260507232525 | 50 | 0 | 0.0 | 0.9 | 0.00 | 0.69 | 0.19 | 78 | 1005.8 |
| 20260507232026 | 50 | 0 | 0.0 | 1.7 | 0.00 | 0.69 | 0.19 | 78 | 1005.8 |
| 20260507231544 | 50 | 0 | 0.0 | 1.7 | 0.00 | 0.69 | 0.19 | 78 | 1005.5 |
| 20260507231030 | 51 | 146 | 0.0 | 2.6 | 0.00 | 0.69 | 0.19 | 78 | 1005.4 |
| 20260507230527 | 51 | 0 | 0.0 | 2.6 | 0.00 | 0.69 | 0.19 | 77 | 1005.3 |
| 20260507230113 | 52 | 145 | 0.9 | 2.6 | 0.00 | 0.69 | 0.19 | 77 | 1005.5 |
| 20260507225528 | 52 | 0 | 0.0 | 1.7 | 0.00 | 0.73 | 0.19 | 77 | 1005.3 |
| 20260507225027 | 52 | 0 | 0.0 | 0.0 | 0.00 | 0.73 | 0.19 | 77 | 1005.3 |
| 20260507224604 | 52 | 0 | 0.0 | 0.0 | 0.00 | 0.73 | 0.19 | 76 | 1005.2 |
| 20260507224026 | 52 | 0 | 0.0 | 0.0 | 0.00 | 0.73 | 0.19 | 76 | 1005.1 |
| 20260507223527 | 52 | 0 | 0.0 | 0.0 | 0.00 | 0.73 | 0.19 | 76 | 1005.1 |
| 20260507223035 | 52 | 0 | 0.0 | 0.9 | 0.00 | 0.73 | 0.19 | 76 | 1005.0 |
| 20260507222528 | 53 | 0 | 0.0 | 0.9 | 0.00 | 0.73 | 0.19 | 76 | 1005.0 |
| 20260507222026 | 53 | 0 | 0.0 | 2.6 | 0.00 | 0.73 | 0.19 | 76 | 1005.0 |
| 20260507221537 | 53 | 0 | 0.0 | 2.6 | 0.00 | 0.73 | 0.19 | 76 | 1005.1 |
| 20260507221031 | 53 | 0 | 0.0 | 1.7 | 0.00 | 0.73 | 0.19 | 77 | 1005.1 |
| 20260507220526 | 53 | 0 | 0.0 | 1.7 | 0.00 | 0.73 | 0.19 | 77 | 1005.2 |
| 20260507220036 | 53 | 0 | 0.0 | 0.9 | 0.00 | 0.73 | 0.19 | 77 | 1005.3 |
| 20260507215527 | 53 | 143 | 0.0 | 2.6 | 0.00 | 0.75 | 0.19 | 76 | 1005.2 |
| 20260507215026 | 52 | 0 | 0.0 | 2.6 | 0.00 | 0.75 | 0.19 | 76 | 1005.2 |
| 20260507214558 | 53 | 248 | 0.0 | 2.6 | 0.00 | 0.75 | 0.19 | 76 | 1005.3 |
| 20260507214025 | 53 | 248 | 0.0 | 4.3 | 0.00 | 0.75 | 0.19 | 76 | 1005.3 |
| 20260507213532 | 53 | 248 | 0.0 | 4.3 | 0.00 | 0.75 | 0.19 | 76 | 1005.3 |
| 20260507213036 | 53 | 248 | 0.0 | 4.3 | 0.00 | 0.75 | 0.19 | 75 | 1005.5 |
| 20260507212526 | 53 | 0 | 0.0 | 4.3 | 0.00 | 0.75 | 0.19 | 75 | 1005.4 |
| 20260507212026 | 54 | 0 | 0.9 | 4.3 | 0.00 | 0.75 | 0.19 | 75 | 1005.5 |
| 20260507211542 | 54 | 0 | 0.0 | 3.5 | 0.00 | 0.75 | 0.19 | 74 | 1005.4 |
| 20260507211030 | 55 | 0 | 0.0 | 3.5 | 0.00 | 0.75 | 0.19 | 73 | 1005.4 |
| 20260507210527 | 55 | 0 | 0.0 | 3.5 | 0.00 | 0.75 | 0.19 | 72 | 1005.5 |
| 20260507210042 | 56 | 0 | 0.0 | 6.1 | 0.00 | 0.75 | 0.19 | 71 | 1005.4 |
| 20260507205527 | 57 | 142 | 0.0 | 9.6 | 0.00 | 0.75 | 0.19 | 71 | 1005.3 |
| 20260507205027 | 58 | 172 | 0.0 | 9.6 | 0.00 | 0.75 | 0.19 | 68 | 1005.2 |
| 20260507204539 | 58 | 153 | 0.9 | 9.6 | 0.00 | 0.75 | 0.19 | 66 | 1005.1 |
| 20260507204028 | 59 | 200 | 0.9 | 6.1 | 0.00 | 0.75 | 0.19 | 66 | 1005.2 |
| 20260507203527 | 59 | 0 | 1.7 | 6.1 | 0.00 | 0.75 | 0.19 | 66 | 1004.9 |
| 20260507203037 | 59 | 0 | 0.0 | 9.6 | 0.00 | 0.75 | 0.19 | 66 | 1005.1 |
| 20260507202526 | 59 | 222 | 2.6 | 9.6 | 0.00 | 0.75 | 0.19 | 64 | 1005.0 |
| 20260507202026 | 60 | 0 | 0.9 | 10.4 | 0.00 | 0.75 | 0.19 | 64 | 1005.0 |
| 20260507201536 | 60 | 249 | 2.6 | 10.4 | 0.00 | 0.75 | 0.19 | 63 | 1005.0 |
| 20260507201026 | 61 | 228 | 0.9 | 10.4 | 0.00 | 0.75 | 0.19 | 65 | 1005.0 |
| 20260507200526 | 61 | 229 | 0.9 | 10.4 | 0.00 | 0.75 | 0.19 | 66 | 1005.0 |
| 20260507200040 | 61 | 282 | 1.7 | 10.4 | 0.00 | 0.75 | 0.19 | 64 | 1005.0 |
| 20260507195527 | 61 | 248 | 0.9 | 8.7 | 0.00 | 0.75 | 0.19 | 65 | 1005.0 |
| 20260507195028 | 61 | 0 | 0.9 | 9.6 | 0.00 | 0.75 | 0.19 | 64 | 1005.0 |
| 20260507194537 | 61 | 0 | 1.7 | 9.6 | 0.00 | 0.75 | 0.19 | 64 | 1005.1 |
| 20260507194026 | 61 | 208 | 2.6 | 8.7 | 0.00 | 0.75 | 0.19 | 64 | 1005.2 |
| 20260507193526 | 61 | 201 | 0.9 | 7.8 | 0.00 | 0.75 | 0.19 | 65 | 1005.2 |
| 20260507193039 | 61 | 204 | 1.7 | 9.6 | 0.00 | 0.75 | 0.19 | 65 | 1005.2 |
| 20260507192526 | 62 | 216 | 2.6 | 9.6 | 0.00 | 0.75 | 0.19 | 64 | 1005.2 |
| 20260507192026 | 61 | 216 | 2.6 | 7.8 | 0.00 | 0.75 | 0.19 | 67 | 1005.2 |
| 20260507191535 | 62 | 0 | 1.7 | 8.7 | 0.00 | 0.75 | 0.19 | 65 | 1005.2 |
| 20260507191027 | 62 | 243 | 2.6 | 8.7 | 0.00 | 0.75 | 0.19 | 66 | 1005.0 |
| 20260507190526 | 62 | 317 | 0.9 | 6.1 | 0.00 | 0.75 | 0.19 | 68 | 1005.1 |
| 20260507190043 | 62 | 245 | 0.9 | 13.9 | 0.00 | 0.75 | 0.19 | 67 | 1005.0 |
| 20260507185528 | 61 | 264 | 1.7 | 13.9 | 0.00 | 0.75 | 0.19 | 69 | 1005.1 |
| 20260507185027 | 61 | 216 | 1.7 | 8.7 | 0.00 | 0.75 | 0.19 | 70 | 1005.1 |
| 20260507184539 | 60 | 202 | 0.9 | 8.7 | 0.00 | 0.75 | 0.19 | 71 | 1005.1 |
| 20260507184027 | 59 | 233 | 0.9 | 7.8 | 0.00 | 0.75 | 0.19 | 73 | 1005.2 |
| 20260507183529 | 59 | 98 | 0.9 | 5.2 | 0.00 | 0.75 | 0.19 | 72 | 1005.1 |
| 20260507183046 | 59 | 86 | 0.9 | 7.8 | 0.00 | 0.75 | 0.19 | 74 | 1005.1 |
| 20260507182527 | 59 | 113 | 0.9 | 7.8 | 0.00 | 0.75 | 0.19 | 72 | 1005.4 |
| 20260507182026 | 59 | 98 | 1.7 | 7.8 | 0.00 | 0.75 | 0.19 | 72 | 1005.4 |
| 20260507181541 | 59 | 80 | 1.7 | 7.8 | 0.00 | 0.75 | 0.19 | 72 | 1005.4 |
| 20260507181029 | 59 | 180 | 1.7 | 7.8 | 0.00 | 0.75 | 0.19 | 71 | 1005.6 |
| 20260507180526 | 58 | 0 | 2.6 | 7.8 | 0.00 | 0.75 | 0.19 | 71 | 1005.7 |
| 20260507180036 | 59 | 105 | 3.5 | 7.8 | 0.00 | 0.75 | 0.19 | 69 | 1005.9 |
| 20260507175526 | 59 | 90 | 2.6 | 6.1 | 0.00 | 0.75 | 0.19 | 70 | 1005.7 |
| 20260507175026 | 59 | 177 | 0.9 | 6.1 | 0.00 | 0.75 | 0.19 | 72 | 1005.9 |
| 20260507174542 | 58 | 0 | 1.7 | 6.1 | 0.00 | 0.75 | 0.19 | 70 | 1006.0 |
| 20260507174028 | 59 | 90 | 0.9 | 6.1 | 0.00 | 0.75 | 0.19 | 71 | 1005.9 |
| 20260507173526 | 59 | 123 | 1.7 | 6.1 | 0.00 | 0.75 | 0.19 | 72 | 1005.8 |
| 20260507173045 | 58 | 89 | 0.9 | 6.1 | 0.00 | 0.75 | 0.19 | 72 | 1005.9 |
| 20260507172557 | 58 | 103 | 0.9 | 4.3 | 0.00 | 0.75 | 0.19 | 71 | 1006.0 |
| 20260507172525 | 58 | 103 | 0.9 | 4.3 | 0.00 | 0.75 | 0.19 | 71 | 1006.0 |
| 20260507172026 | 58 | 0 | 0.9 | 4.3 | 0.00 | 0.75 | 0.19 | 70 | 1006.0 |
| 20260507171544 | 58 | 0 | 0.9 | 9.6 | 0.00 | 0.75 | 0.19 | 69 | 1005.3 |
| 20260507171027 | 59 | 0 | 1.7 | 9.6 | 0.00 | 0.75 | 0.19 | 71 | 1006.2 |
| 20260507170527 | 58 | 90 | 1.7 | 6.1 | 0.00 | 0.75 | 0.19 | 70 | 1006.1 |
| 20260507170038 | 59 | 58 | 1.7 | 6.1 | 0.00 | 0.75 | 0.19 | 70 | 1006.2 |
| 20260507165526 | 59 | 107 | 0.9 | 7.0 | 0.00 | 0.75 | 0.19 | 70 | 1006.4 |
| 20260507165026 | 58 | 98 | 0.9 | 7.0 | 0.00 | 0.75 | 0.19 | 69 | 1006.4 |
| 20260507164543 | 58 | 99 | 0.9 | 6.1 | 0.00 | 0.75 | 0.19 | 68 | 1006.6 |
| 20260507164026 | 58 | 117 | 1.7 | 7.8 | 0.00 | 0.75 | 0.19 | 70 | 1006.6 |
| 20260507163527 | 58 | 88 | 2.6 | 7.8 | 0.00 | 0.75 | 0.19 | 69 | 1006.6 |
| 20260507163043 | 58 | 100 | 2.6 | 7.8 | 0.00 | 0.75 | 0.19 | 69 | 1006.8 |
| 20260507162528 | 58 | 101 | 1.7 | 5.2 | 0.00 | 0.75 | 0.19 | 69 | 1006.8 |
| 20260507162026 | 58 | 101 | 1.7 | 7.0 | 0.00 | 0.75 | 0.19 | 67 | 1006.9 |
| 20260507161542 | 58 | 95 | 0.9 | 7.0 | 0.00 | 0.75 | 0.19 | 69 | 1007.0 |
| 20260507161027 | 57 | 101 | 1.7 | 7.0 | 0.00 | 0.75 | 0.19 | 71 | 1007.0 |
| 20260507160527 | 57 | 94 | 2.6 | 7.0 | 0.00 | 0.75 | 0.19 | 69 | 1007.1 |
| 20260507160047 | 57 | 101 | 2.6 | 6.1 | 0.00 | 0.75 | 0.19 | 68 | 1007.1 |
| 20260507155527 | 57 | 99 | 1.7 | 5.2 | 0.00 | 0.75 | 0.19 | 69 | 1007.3 |
| 20260507155027 | 56 | 101 | 0.9 | 6.1 | 0.00 | 0.75 | 0.19 | 72 | 1007.4 |
| 20260507154537 | 56 | 123 | 0.9 | 6.1 | 0.00 | 0.75 | 0.19 | 73 | 1007.3 |
| 20260507154026 | 55 | 91 | 2.6 | 6.1 | 0.00 | 0.75 | 0.19 | 73 | 1007.3 |
| 20260507153526 | 55 | 96 | 1.7 | 7.8 | 0.00 | 0.75 | 0.19 | 71 | 1007.3 |
| 20260507153038 | 55 | 98 | 1.7 | 7.8 | 0.00 | 0.75 | 0.19 | 73 | 1007.5 |
| 20260507152526 | 55 | 100 | 2.6 | 7.8 | 0.00 | 0.75 | 0.19 | 74 | 1007.5 |
| 20260507152027 | 55 | 109 | 0.9 | 6.1 | 0.00 | 0.75 | 0.19 | 74 | 1007.8 |
| 20260507151535 | 55 | 89 | 1.7 | 6.1 | 0.00 | 0.75 | 0.19 | 75 | 1007.6 |
| 20260507151026 | 54 | 96 | 1.7 | 5.2 | 0.00 | 0.75 | 0.19 | 74 | 1007.7 |
| 20260507150529 | 54 | 95 | 2.6 | 6.1 | 0.00 | 0.75 | 0.19 | 76 | 1007.7 |
| 20260507150036 | 54 | 94 | 2.6 | 6.1 | 0.00 | 0.75 | 0.19 | 78 | 1007.5 |
| 20260507145526 | 54 | 86 | 2.6 | 5.2 | 0.00 | 0.75 | 0.19 | 76 | 1007.5 |
| 20260507145029 | 54 | 99 | 2.6 | 5.2 | 0.00 | 0.75 | 0.19 | 76 | 1007.6 |
| 20260507144536 | 54 | 90 | 1.7 | 3.5 | 0.00 | 0.75 | 0.19 | 77 | 1007.8 |
| 20260507144027 | 54 | 90 | 1.7 | 3.5 | 0.00 | 0.75 | 0.19 | 77 | 1007.8 |
| 20260507143526 | 53 | 90 | 1.7 | 3.5 | 0.00 | 0.75 | 0.19 | 77 | 1007.8 |
| 20260507143039 | 53 | 90 | 2.6 | 3.5 | 0.00 | 0.75 | 0.19 | 78 | 1007.8 |
| 20260507142528 | 53 | 90 | 1.7 | 3.5 | 0.00 | 0.75 | 0.19 | 78 | 1008.1 |
| 20260507142026 | 53 | 90 | 1.7 | 5.2 | 0.00 | 0.75 | 0.19 | 78 | 1008.2 |
| 20260507141542 | 53 | 90 | 1.7 | 5.2 | 0.00 | 0.75 | 0.19 | 78 | 1008.3 |
| 20260507141029 | 52 | 90 | 2.6 | 5.2 | 0.00 | 0.75 | 0.19 | 78 | 1008.3 |
| 20260507140529 | 53 | 90 | 2.6 | 5.2 | 0.00 | 0.75 | 0.19 | 79 | 1008.3 |
| 20260507140037 | 53 | 90 | 2.6 | 5.2 | 0.00 | 0.75 | 0.19 | 79 | 1008.2 |
| 20260507135727 | 53 | 86 | 2.6 | 6.1 | 0.00 | 0.75 | 0.19 | 79 | 1008.2 |
| 20260507135657 | 53 | 86 | 2.6 | 6.1 | 0.00 | 0.75 | 0.19 | 79 | 1008.2 |
| 20260507135627 | 53 | 86 | 2.6 | 6.1 | 0.00 | 0.75 | 0.19 | 79 | 1008.2 |
| 20260507135527 | 53 | 86 | 2.6 | 6.1 | 0.00 | 0.75 | 0.19 | 79 | 1008.2 |
| 20260507135027 | 52 | 82 | 1.7 | 6.1 | 0.00 | 0.75 | 0.19 | 79 | 1008.1 |
| 20260507134538 | 52 | 82 | 1.7 | 6.1 | 0.00 | 0.75 | 0.19 | 78 | 1008.3 |
| 20260507134026 | 53 | 327 | 2.6 | 3.5 | 0.00 | 0.75 | 0.19 | 78 | 1008.4 |
| 20260507133527 | 53 | 267 | 0.0 | 3.5 | 0.00 | 0.75 | 0.19 | 78 | 1008.3 |
| 20260507133040 | 52 | 303 | 0.0 | 3.5 | 0.00 | 0.75 | 0.19 | 79 | 1008.3 |
| 20260507132526 | 52 | 238 | 0.9 | 5.2 | 0.00 | 0.75 | 0.19 | 79 | 1008.5 |
| 20260507132028 | 52 | 238 | 0.9 | 6.1 | 0.00 | 0.75 | 0.19 | 80 | 1008.6 |
| 20260507131537 | 52 | 13 | 1.7 | 7.0 | 0.00 | 0.75 | 0.19 | 81 | 1008.3 |
| 20260507131027 | 52 | 0 | 1.7 | 8.7 | 0.00 | 0.75 | 0.19 | 81 | 1008.3 |
| 20260507130527 | 51 | 15 | 3.5 | 8.7 | 0.00 | 0.75 | 0.19 | 81 | 1008.2 |
| 20260507130047 | 51 | 58 | 0.9 | 7.0 | 0.00 | 0.75 | 0.19 | 82 | 1008.5 |
| 20260507125526 | 51 | 301 | 1.7 | 7.8 | 0.00 | 0.75 | 0.19 | 83 | 1008.5 |
| 20260507125026 | 51 | 0 | 0.9 | 8.7 | 0.00 | 0.75 | 0.19 | 84 | 1008.2 |
| 20260507124548 | 50 | 20 | 2.6 | 8.7 | 0.00 | 0.75 | 0.19 | 84 | 1007.8 |
| 20260507124026 | 50 | 21 | 1.7 | 7.8 | 0.00 | 0.75 | 0.19 | 85 | 1007.7 |
| 20260507123527 | 50 | 292 | 2.6 | 9.6 | 0.00 | 0.75 | 0.19 | 86 | 1007.6 |
| 20260507123339 | 49 | 269 | 2.6 | 9.6 | 0.00 | 0.75 | 0.19 | 87 | 1007.5 |
| 20260507123259 | 49 | 269 | 2.6 | 9.6 | 0.00 | 0.75 | 0.19 | 87 | 1007.5 |
| 20260507123158 | 49 | 269 | 2.6 | 9.6 | 0.00 | 0.75 | 0.19 | 87 | 1007.5 |
| 20260507123128 | 49 | 269 | 2.6 | 9.6 | 0.00 | 0.75 | 0.19 | 87 | 1007.5 |
| 20260507123040 | 49 | 269 | 2.6 | 9.6 | 0.00 | 0.75 | 0.19 | 87 | 1007.5 |
| 20260507122526 | 48 | 0 | 0.0 | 4.3 | 0.00 | 0.75 | 0.19 | 87 | 1007.2 |
| 20260507122026 | 48 | 0 | 0.0 | 4.3 | 0.00 | 0.75 | 0.19 | 87 | 1007.4 |
| 20260507121538 | 48 | 352 | 1.7 | 4.3 | 0.00 | 0.75 | 0.19 | 88 | 1007.2 |
| 20260507121028 | 48 | 0 | 0.0 | 4.3 | 0.00 | 0.75 | 0.19 | 88 | 1007.7 |
| 20260507120532 | 47 | 0 | 1.7 | 3.5 | 0.00 | 0.75 | 0.19 | 89 | 1007.7 |
| 20260507120150 | 47 | 290 | 0.0 | 3.5 | 0.00 | 0.75 | 0.19 | 89 | 1007.3 |
| 20260507115527 | 47 | 0 | 0.0 | 3.5 | 0.00 | 0.75 | 0.19 | 89 | 1008.1 |
| 20260507115031 | 47 | 0 | 0.0 | 3.5 | 0.00 | 0.75 | 0.19 | 89 | 1008.2 |
| 20260507114546 | 47 | 0 | 0.9 | 4.3 | 0.00 | 0.75 | 0.19 | 90 | 1007.8 |
| 20260507114026 | 47 | 340 | 1.7 | 4.3 | 0.00 | 0.75 | 0.19 | 90 | 1007.6 |
| 20260507113526 | 47 | 0 | 0.0 | 0.0 | 0.00 | 0.75 | 0.19 | 90 | 1008.1 |
| 20260507113037 | 47 | 0 | 0.0 | 0.0 | 0.00 | 0.75 | 0.19 | 90 | 1008.4 |
| 20260507112527 | 47 | 0 | 0.0 | 0.0 | 0.00 | 0.75 | 0.19 | 90 | 1008.1 |
| 20260507112026 | 46 | 0 | 0.0 | 0.0 | 0.00 | 0.75 | 0.19 | 90 | 1008.0 |
| 20260507111542 | 46 | 0 | 0.0 | 3.5 | 0.00 | 0.75 | 0.19 | 91 | 1008.2 |
| 20260507111026 | 46 | 0 | 0.0 | 4.3 | 0.00 | 0.75 | 0.19 | 91 | 1008.1 |
| 20260507110527 | 46 | 293 | 0.9 | 4.3 | 0.00 | 0.75 | 0.19 | 91 | 1007.8 |
| 20260507110057 | 46 | 0 | 0.0 | 4.3 | 0.00 | 0.75 | 0.19 | 91 | 1007.7 |
| 20260507105526 | 46 | 0 | 0.0 | 6.1 | 0.00 | 0.75 | 0.19 | 91 | 1007.6 |
| 20260507105027 | 46 | 242 | 0.9 | 6.1 | 0.00 | 0.75 | 0.19 | 91 | 1008.2 |
| 20260507104545 | 46 | 242 | 1.7 | 5.2 | 0.00 | 0.75 | 0.19 | 91 | 1007.9 |
| 20260507104029 | 46 | 0 | 0.0 | 2.6 | 0.00 | 0.75 | 0.19 | 91 | 1007.1 |
| 20260507103527 | 46 | 0 | 0.0 | 2.6 | 0.00 | 0.75 | 0.19 | 91 | 1007.1 |
| 20260507103036 | 46 | 268 | 0.0 | 6.1 | 0.00 | 0.75 | 0.19 | 91 | 1007.4 |
| 20260507102527 | 46 | 0 | 0.9 | 6.1 | 0.00 | 0.75 | 0.19 | 91 | 1007.3 |
| 20260507102029 | 46 | 0 | 0.0 | 2.6 | 0.00 | 0.75 | 0.19 | 91 | 1007.2 |
| 20260507101543 | 46 | 279 | 0.0 | 2.6 | 0.00 | 0.75 | 0.19 | 91 | 1006.9 |
| 20260507101027 | 47 | 0 | 0.0 | 3.5 | 0.00 | 0.75 | 0.19 | 92 | 1006.9 |